Regional Weather Roundup
Issued by NWS

Home | Current Version | Previous Version | Graphics & Text | Print | Product List | Glossary On
Versions: 1 2 3 4 5 6 7 8 9 10 11 12 13 14 15 16 17 18 19 20 21 22 23 24 25 26 27 28 29 30 31 32 33 34 35 36 37 38 39 40 41 42 43 44 45 46 47 48 49 50
000
ASUS43 KMKX 070620
RWRWI

WISCONSIN REGIONAL WEATHER ROUNDUP
NATIONAL WEATHER SERVICE MILWAUKEE/SULLIVAN WI
1200 AM CST SUN FEB 07 2016

NOTE: "FAIR" INDICATES FEW OR NO CLOUDS BELOW 12,000 FEET WITH NO
SIGNIFICANT WEATHER AND/OR OBSTRUCTIONS TO VISIBILITY.

WIZ001-002-006>008-014>016-023>028-070700-
NORTHWEST WISCONSIN

CITY           SKY/WX    TMP DP  RH WIND       PRES   REMARKS
SUPERIOR ARPT  CLOUDY    33  31  91 SW14G20   29.63F WCI  24
6HR MIN TEMP:  33; 6HR MAX TEMP:  35;

ASHLAND        LGT SNOW  32  29  88 S9        29.67F FOG     WCI  24
6HR MIN TEMP:  32; 6HR MAX TEMP:  35; 6HR PCP: TRACE;

HAYWARD        CLOUDY    30  26  85 S15       29.69F WCI  19
6HR MIN TEMP:  30; 6HR MAX TEMP:  33; 6HR PCP:  0.01;

SIREN          CLOUDY    33  28  84 SW10G16   29.69F WCI  24
6HR MIN TEMP:  32; 6HR MAX TEMP:  34;

CUMBERLAND     CLOUDY    30  28  93 S9        29.71F WCI  22
RICE LAKE      CLOUDY    31  27  87 SE12      29.73F WCI  21
6HR MIN TEMP:  30; 6HR MAX TEMP:  32;

CHETEK         CLOUDY    30  27  88 S8        29.74F WCI  23
6HR MIN TEMP:  30; 6HR MAX TEMP:  31;

LADYSMITH      LGT SNOW  30  27  91 S10       29.78F WCI  21
6HR MIN TEMP:  30; 6HR MAX TEMP:  32;

EAU CLAIRE     CLOUDY    32  26  78 S13       29.78F WCI  22
6HR MIN TEMP:  31; 6HR MAX TEMP:  32; 6HR PCP: TRACE;

MENOMONIE      CLOUDY    32  28  84 S9        29.78F WCI  24
6HR MIN TEMP:  32; 6HR MAX TEMP:  32;

NEW RICHMOND   CLOUDY    32  28  84 S13       29.72F WCI  22
6HR MIN TEMP:  32; 6HR MAX TEMP:  32;

OSCEOLA        CLOUDY    33  29  88 S6        29.75R WCI  27
6HR MIN TEMP:  32; 6HR MAX TEMP:  33;

$$

WIZ003>005-009-010-017-018-070700-
NORTH CENTRAL WISCONSIN

CITY           SKY/WX    TMP DP  RH WIND       PRES   REMARKS
MANITOWISH WTR LGT SNOW  28  27  95 S13       29.71F WCI  17
6HR MIN TEMP:  28; 6HR MAX TEMP:  31;

ARBOR VITAE    LGT SNOW  32  27  83 SW15      29.74F WCI  21
6HR MIN TEMP:  32; 6HR MAX TEMP:  32;

WOODRUFF       LGT SNOW  32  27  83 SW15      29.74F WCI  21
6HR MIN TEMP:  32; 6HR MAX TEMP:  32;

RHINELANDER    FLURRIES  29  23  78 SW14G21   29.77F WCI  18
6HR MIN TEMP:  28; 6HR MAX TEMP:  30; 6HR PCP: TRACE;

EAGLE RIVER    LGT SNOW  28  24  84 S6G17     29.74F WCI  22
LAND O LAKES   FLURRIES  30  26  87 SW10G20   29.73F WCI  21
6HR MIN TEMP:  30; 6HR MAX TEMP:  31;

PHILLIPS       LGT SNOW  28  26  94 S15       29.74F WCI  16
6HR MIN TEMP:  28; 6HR MAX TEMP:  32;

TOMAHAWK       FLURRIES  29  23  78 S5        29.78F WCI  24
6HR MIN TEMP:  28; 6HR MAX TEMP:  30;

MEDFORD        LGT SNOW  28  26  91 S9        29.78F WCI  19
6HR MIN TEMP:  28; 6HR MAX TEMP:  30;

MERRILL        CLOUDY    30  24  80 SW12      29.81F WCI  20
6HR MIN TEMP:  30; 6HR MAX TEMP:  31;

$$

WIZ029-030-035-036-043>047-070700-
CENTRAL WISCONSIN

CITY           SKY/WX    TMP DP  RH WIND       PRES   REMARKS
WAUSAU         LGT SNOW  30  24  78 S13       29.81F WCI  20
6HR MIN TEMP:  30; 6HR MAX TEMP:  32; 6HR PCP: TRACE;

MOSINEE        CLOUDY    30  27  86 S13       29.84F WCI  20
MARSHFIELD     CLOUDY    30  23  75 S10       29.81F WCI  21
6HR MIN TEMP:  30; 6HR MAX TEMP:  31; 6HR PCP: TRACE;

STEVENS POINT  CLOUDY    28  24  86 S9        29.87F WCI  19
6HR MIN TEMP:  28; 6HR MAX TEMP:  29;

WAUPACA        CLOUDY    32  26  80 S9        29.91F WCI  24
6HR MIN TEMP:  31; 6HR MAX TEMP:  32;

WAUTOMA        CLOUDY    30  28  92 S6        29.92F WCI  24
6HR MIN TEMP:  30; 6HR MAX TEMP:  31;

WISC RAPIDS    CLOUDY    30  24  78 S9        29.87F WCI  22
6HR MIN TEMP:  29; 6HR MAX TEMP:  31;

CAMP DOUGLAS   MOCLDY    32  32 100 S7        29.87F WCI  25
6HR MIN TEMP:  30; 6HR MAX TEMP:  33;

$$

WIZ011>013-019>022-031-037>040-048>050-070700-
NORTHEAST WISCONSIN

CITY           SKY/WX    TMP DP  RH WIND       PRES   REMARKS
ANTIGO         CLOUDY    27  25  91 S13       29.82F WCI  16
6HR MIN TEMP:  27; 6HR MAX TEMP:  28;

SHAWANO        CLOUDY    31  26  79 SW5       29.91F WCI  27
6HR MIN TEMP:  31; 6HR MAX TEMP:  32;

OCONTO         CLOUDY    29  26  86 S6        29.91F WCI  23
6HR MIN TEMP:  29; 6HR MAX TEMP:  30;

STURGEON BAY   CLOUDY    28  21  74 S12G18    29.93F WCI  18
6HR MIN TEMP:  28; 6HR MAX TEMP:  28;

GREEN BAY      CLOUDY    29  25  85 S9        29.93F WCI  20
6HR MIN TEMP:  29; 6HR MAX TEMP:  30;

MANITOWOC      CLOUDY    31  27  85 SW8       29.96F WCI  23
6HR MIN TEMP:  29; 6HR MAX TEMP:  31;

APPLETON       CLOUDY    30  25  80 S10       29.90F WCI  21
CLINTONVILLE   CLOUDY    30  25  80 S8        29.91F WCI  23
OSHKOSH        CLOUDY    31  26  82 S17       29.92F WCI  19
6HR MIN TEMP:  28; 6HR MAX TEMP:  31;

$$

WIZ032>034-041-042-053>061-070700-
SOUTHWEST WISCONSIN

CITY           SKY/WX    TMP DP  RH WIND       PRES   REMARKS
LA CROSSE      CLOUDY    32  27  81 S9        29.85F WCI  24
6HR MIN TEMP:  30; 6HR MAX TEMP:  32;

SPARTA         CLOUDY    32  28  85 S5        29.87F WCI  28
6HR MIN TEMP:  30; 6HR MAX TEMP:  32;

VIROQUA        CLOUDY    32  30  92 S16G22    29.86F WCI  21
6HR MIN TEMP:  28; 6HR MAX TEMP:  32;

BOSCOBEL       CLOUDY    34  31  88 S6        29.92F WCI  29
6HR MIN TEMP:  29; 6HR MAX TEMP:  34;

PRAIRIE DU CHI CLOUDY    37  29  73 S7        29.90F WCI  31
6HR MIN TEMP:  31; 6HR MAX TEMP:  37;

PLATTEVILLE    CLOUDY    33  31  94 S15       29.94F WCI  22
6HR MIN TEMP:  27; 6HR MAX TEMP:  33;

$$

WIZ056-057-062-063-064-067-068-070700-
SOUTH CENTRAL WISCONSIN

CITY           SKY/WX    TMP DP  RH WIND       PRES   REMARKS
REEDSBURG      CLOUDY    32  28  86 S10       29.90F WCI  24
6HR MIN TEMP:  28; 6HR MAX TEMP:  32;

BARABOO/DELLS  CLOUDY    32  28  83 S14       29.90F WCI  22
6HR MIN TEMP:  28; 6HR MAX TEMP:  32;

LONE ROCK      MOCLDY    34  28  79 SW7       29.93F WCI  28
6HR MIN TEMP:  29; 6HR MAX TEMP:  34;

MINERAL POINT  CLOUDY    34  32  93 S14       29.93F WCI  24
MADISON        CLOUDY    32  28  85 S9        29.96F WCI  24
6HR MIN TEMP:  29; 6HR MAX TEMP:  32;

MIDDLETON      CLOUDY    34  30  86 SW6       29.96F WCI  29
6HR MIN TEMP:  30; 6HR MAX TEMP:  34;

WATERTOWN      CLOUDY    30  30 100 S6        29.96F WCI  24
6HR MIN TEMP:  27; 6HR MAX TEMP:  30;

MONROE         CLOUDY    32  30  93 S15       29.96F WCI  22
JANESVILLE     CLOUDY    34  32  93 S7        29.99F WCI  28
$$

WIZ051-052-058>065-066-070>072-070700-
SOUTHEAST WISCONSIN

CITY           SKY/WX    TMP DP  RH WIND       PRES   REMARKS
MILWAUKEE      CLOUDY    32  27  81 SW7       30.00F WCI  26
6HR MIN TEMP:  30; 6HR MAX TEMP:  34;

WAUKESHA       MOCLDY    30  28  93 S3        29.99F
MILWAUKEE/TIMM CLOUDY    32  28  86 SW9       30.00F WCI  24
RACINE         CLOUDY    33  27  78 SW8       30.03F WCI  26
6HR MIN TEMP:  28; 6HR MAX TEMP:  33;

BURLINGTON     MOCLDY    29  27  91 SW5       30.00F WCI  24
6HR MIN TEMP:  25; 6HR MAX TEMP:  30;

KENOSHA        CLOUDY    32  28  85 SW5       30.01F WCI  27
6HR MIN TEMP:  28; 6HR MAX TEMP:  34;

FOND DU LAC    CLOUDY    32  27  81 S13       29.94F WCI  22
6HR MIN TEMP:  29; 6HR MAX TEMP:  32;

SHEBOYGAN      CLOUDY    30  26  85 SW7       29.96F WCI  23
6HR MIN TEMP:  27; 6HR MAX TEMP:  31;

WEST BEND      MOCLDY    32  30  93 S6        29.97F WCI  26
JUNEAU         CLOUDY    30  27  90 S9        29.97F WCI  21
6HR MIN TEMP:  27; 6HR MAX TEMP:  30;

$$

LSZ147-162-070700-
LAKE SUPERIOR

STATION/POSITION TIME  TEMP    WIND        PRES    WAVE
                       AIR SEA DIR/SP/G            HT/PER
                 (UTC) (F)     (DEG/KT/KT) (MB)    (FT/S)
DEVILS ISLAND    0600   31     180/  7/  9 1005.0F
PORT WING        0400          180/  9/ 21   N/A
SAXON HARBOR     0500   34                 1005.8
$$

LMZ867-665-643>646-070700-
LAKE MICHIGAN

STATION/POSITION TIME  TEMP    WIND        PRES    WAVE
                       AIR SEA DIR/SP/G            HT/PER
                 (UTC) (F)     C1F1C2F2C3F3C4F4C5F5C6F6C7F7C8M1C9M2Ca!


USA.gov is the U.S. government's official web portal to all federal, state and local government web resources and services.